Location: Monroe
(41.9160°N, 83.3980°W)
Time: 10:28:20
(UTC-04:00)

Amateur Radio Satellites - All Passes

Search period start: 30 May 2015 09:58
Search period end: 31 May 2015 09:58
Location: Monroe, 41.9160°N, 83.3980°W

Satellite Date Start Highest point End Downlink Frequencies (MHz)
Time Altitude Azimuth
AAUSAT CUBESAT 2 30 May 10:00:24 10:03:51 26° 94° (E) 10:07:20 437.432
CUBEBUG 2 30 May 10:01:00 10:01:56 11° 86° (E) 10:03:07 437.445
ANTELSAT 30 May 10:06:06 10:08:51 16° 65° (ENE) 10:11:45 437.575/2403.000
DOVE 4 30 May 10:19:46 10:24:53 81° 102° (ESE) 10:29:38 437.250
TIGRISAT 30 May 10:35:43 10:39:45 30° 69° (ENE) 10:43:47 435.000
UWE-3 30 May 10:38:31 10:41:57 23° 93° (E) 10:45:22 435.000/436.395/437.385
FUNcube-1 30 May 10:39:02 10:41:51 18° 91° (E) 10:44:46 145.935
NANOSAT C BR1 30 May 10:46:05 10:48:49 17° 66° (ENE) 10:51:41 145.865
YUBILEINY 30 May 10:50:15 10:54:29 13° 306° (NW) 10:58:09 435.215
QB50P2 30 May 10:56:14 10:59:33 23° 68° (ENE) 11:02:58 145.880/145.840
UNISAT 6 30 May 10:57:15 11:01:47 51° 73° (ENE) 11:06:16 437.425
PCSat 30 May 10:57:24 11:02:31 43° 247° (WSW) 11:07:35 145.827
CANX-2 30 May 10:59:50 11:03:39 33° 289° (WNW) 11:07:24 2200.000
CUTE 1.7 + AOD 2 30 May 11:02:46 11:06:37 34° 289° (WNW) 11:10:24 437.475
DUCHIFAT 1 30 May 11:06:05 11:09:39 27° 69° (ENE) 11:13:18 145.980
SO-50 30 May 11:07:00 11:11:24 31° 46° (NE) 11:15:48 436.795
POPSAT HIP 1 30 May 11:07:09 11:10:48 28° 69° (ENE) 11:14:32 437.405
CINEMA 3 30 May 11:08:08 11:12:48 66° 285° (WNW) 11:17:11 145.822/145.860
RS-15 30 May 11:08:40 11:19:11 49° 317° (NW) 11:29:59 29.354- 29.394
HO-68 30 May 11:12:34 11:19:30 54° 292° (WNW) 11:26:22 435.675
BUGSAT 1 30 May 11:12:46 11:15:57 22° 67° (ENE) 11:19:15 437.445
UKube-1 30 May 11:15:01 11:18:04 19° 92° (E) 11:21:16 .
GOMX 1 30 May 11:15:26 11:19:35 23° 295° (WNW) 11:23:27 467.674
SEEDS 30 May 11:19:44 11:23:19 27° 290° (WNW) 11:26:49 437.485
ZACube-1 30 May 11:20:12 11:24:24 52° 99° (E) 11:28:30 437.345
Oscar 11 30 May 11:24:02 11:28:21 79° 284° (WNW) 11:32:39 145.826/435.025
COMPASS 1 30 May 11:26:57 11:30:31 28° 290° (WNW) 11:34:02 437.405
DX 1 30 May 11:28:45 11:32:34 29° 96° (E) 11:36:25 434.975-435.025
Cosmos 2504 30 May 11:30:23 11:38:26 54° 283° (WNW) 11:45:55 435.465 / 435.565
CUSAT 1 30 May 11:33:03 11:35:08 12° 77° (ENE) 11:37:53 437.405
BRITE-PL 30 May 11:33:17 11:35:42 13° 301° (WNW) 11:37:48 437.365/2234.400
CUBEBUG 2 30 May 11:34:51 11:39:16 67° 285° (WNW) 11:43:30 437.445
AAUSAT CUBESAT 2 30 May 11:35:56 11:39:25 26° 291° (WNW) 11:42:50 437.432
DELFI C3 30 May 11:37:42 11:41:43 73° 284° (WNW) 11:45:43 145.870
ANTELSAT 30 May 11:40:38 11:45:15 57° 260° (W) 11:49:48 437.575/2403.000
CUBEBUG 1 30 May 11:46:32 11:48:06 12° 88° (E) 11:49:56 437.445
QB50P1 30 May 11:50:02 11:54:19 84° 76° (ENE) 11:58:39 145.935-145.965
POLYITAN 1 30 May 11:54:07 11:58:26 86° 257° (WSW) 12:02:47 437.675
VELOX 1 30 May 11:57:17 12:01:14 30° 96° (E) 12:05:11 145.980
DOVE 4 30 May 11:59:30 12:01:55 13° 299° (WNW) 12:04:03 437.250
TIGRISAT 30 May 12:12:25 12:16:28 28° 265° (W) 12:20:26 435.000
FUNcube-1 30 May 12:14:24 12:18:25 39° 288° (WNW) 12:22:19 145.935
UWE-3 30 May 12:14:41 12:18:33 31° 290° (WNW) 12:22:16 435.000/436.395/437.385
ESTCUBE 1 30 May 12:14:50 12:18:45 28° 95° (E) 12:22:43 437.505/2401.250
HUMSAT D 30 May 12:19:40 12:23:49 73° 284° (WNW) 12:27:53 437.325/437.525
NANOSAT C BR1 30 May 12:20:13 12:24:20 45° 261° (W) 12:28:28 145.865
50 SAT 30 May 12:23:35 12:27:27 68° 101° (E) 12:31:16 437.505
AISAT 30 May 12:29:57 12:34:27 71° 102° (ESE) 12:38:55 437.250
QB50P2 30 May 12:31:23 12:35:18 33° 264° (W) 12:39:11 145.880/145.840
UNISAT 6 30 May 12:35:49 12:38:52 17° 270° (W) 12:41:44 437.425
DUCHIFAT 1 30 May 12:41:44 12:45:25 27° 265° (W) 12:49:03 145.980
POPSAT HIP 1 30 May 12:43:02 12:46:40 26° 266° (W) 12:50:16 437.405
SO-50 30 May 12:47:26 12:52:03 39° 244° (WSW) 12:56:33 436.795
BUGSAT 1 30 May 12:47:28 12:51:15 32° 264° (W) 12:55:04 437.445
UKube-1 30 May 12:50:20 12:54:24 39° 289° (WNW) 12:58:25 .
ZACube-1 30 May 12:57:53 13:00:22 15° 295° (WNW) 13:02:39 437.345
DANDE 30 May 13:03:40 13:10:40 45° 90° (E) 13:18:40 436.750
HO-68 30 May 13:04:06 13:05:49 11° 311° (NW) 13:07:08 435.675
DX 1 30 May 13:05:02 13:08:45 26° 292° (WNW) 13:12:21 434.975-435.025
CUSAT 1 30 May 13:08:51 13:16:20 61° 94° (E) 13:24:32 437.405
GONETS M04 30 May 13:16:15 13:24:34 49° 90° (E) 13:33:00
CUBEBUG 1 30 May 13:20:33 13:24:59 65° 286° (WNW) 13:29:23 437.445
RS-15 30 May 13:26:52 13:35:19 23° 349° (N) 13:43:55 29.354- 29.394
VELOX 1 30 May 13:33:56 13:37:42 26° 292° (WNW) 13:41:23 145.980
SPROUT 30 May 13:44:39 13:48:58 66° 101° (E) 13:53:15 437.525
Gurwin Techsat 1B 30 May 13:44:44 13:47:38 16° 61° (ENE) 13:50:46 435.225
ESTCUBE 1 30 May 13:51:40 13:55:35 28° 291° (WNW) 13:59:25 437.505/2401.250
TISAT 1 30 May 13:53:01 13:57:15 57° 100° (E) 14:01:25 437.305
Oscar 19 30 May 13:58:55 14:04:03 68° 74° (ENE) 14:09:15 437.125/150
Cosmos 2499 30 May 14:00:28 14:04:06 15° 81° (E) 14:08:07 435.465 / 435.565
AISAT 30 May 14:08:29 14:10:31 13° 298° (WNW) 14:12:20 437.250
AO-7 30 May 14:12:58 14:16:15 13° 45° (NE) 14:19:59 29.400- 29.500
ITAMSAT 1 30 May 14:22:07 14:26:42 34° 68° (ENE) 14:31:22 435.822/435.867
DANDE 30 May 14:46:41 14:53:58 44° 291° (WNW) 15:02:02 436.750
CUSAT 1 30 May 14:52:35 14:59:35 33° 294° (WNW) 15:06:48 437.405
ITUPSAT 1 30 May 14:57:51 15:02:25 43° 98° (E) 15:07:00 437.325
BEESAT 30 May 15:02:58 15:07:36 50° 99° (E) 15:12:15 436.000
SWISSCUBE 30 May 15:12:02 15:16:49 68° 102° (ESE) 15:21:34 437.505
GONETS M04 30 May 15:13:34 15:21:41 38° 290° (WNW) 15:29:42
Gurwin Techsat 1B 30 May 15:21:45 15:27:03 76° 257° (WSW) 15:32:24 435.225
SPROUT 30 May 15:22:36 15:24:34 13° 297° (WNW) 15:26:20 437.525
TISAT 1 30 May 15:30:19 15:32:35 14° 296° (WNW) 15:34:40 437.305
HORYU 2 30 May 15:33:35 15:37:08 24° 67° (ENE) 15:40:47 437.375
O/OREOS (USA 219) 30 May 15:36:06 15:40:28 51° 108° (ESE) 15:44:51 437.305
Oscar 19 30 May 15:40:57 15:44:00 15° 271° (W) 15:46:47 437.125/150
KKS-1 30 May 15:41:23 15:44:50 22° 93° (E) 15:48:22 437.445
RS-15 30 May 15:43:23 15:52:46 29° 24° (NNE) 16:02:42 29.354- 29.394
Cosmos 2499 30 May 15:48:21 15:56:24 85° 97° (E) 16:03:53 435.465 / 435.565
AO-7 30 May 15:59:26 16:07:24 56° 65° (ENE) 16:15:30 29.400- 29.500
ITAMSAT 1 30 May 16:01:41 16:06:14 30° 265° (W) 16:10:45 435.822/435.867
JAS-2 30 May 16:10:43 16:17:05 63° 73° (ENE) 16:22:46 435.910
STARS 30 May 16:35:16 16:39:35 51° 100° (E) 16:43:53 437.465
ITUPSAT 1 30 May 16:36:24 16:40:03 22° 294° (WNW) 16:43:36 437.325
BEESAT 30 May 16:41:45 16:45:07 19° 295° (WNW) 16:48:22 436.000
SWISSCUBE 30 May 16:51:28 16:54:10 15° 298° (WNW) 16:56:40 437.505
YUBILEINY 30 May 17:02:51 17:05:57 13° 53° (NE) 17:09:41 435.215
HORYU 2 30 May 17:09:35 17:13:39 33° 264° (W) 17:17:41 437.375
O/OREOS (USA 219) 30 May 17:17:08 17:20:15 18° 307° (NW) 17:23:15 437.305
KKS-1 30 May 17:17:29 17:21:35 35° 290° (WNW) 17:25:37 437.445
BEESAT 3 30 May 17:26:01 17:29:39 32° 116° (ESE) 17:33:21 437.485
Cubesat XI-IV 30 May 17:28:09 17:30:33 14° 60° (ENE) 17:33:13 437.490
MOZHAYETS 4 30 May 17:38:26 17:42:33 33° 96° (E) 17:46:43
Cosmos 2499 30 May 17:45:14 17:50:34 18° 297° (WNW) 17:55:20 435.465 / 435.565
AO-7 30 May 17:53:11 18:00:36 34° 265° (W) 18:07:54 29.400- 29.500
RS-15 30 May 17:56:11 18:07:47 71° 52° (NE) 18:19:54 29.354- 29.394
JAS-2 30 May 17:57:54 18:02:35 20° 268° (W) 18:06:42 435.910
STARS 30 May 18:12:52 18:15:40 16° 296° (WNW) 18:18:17 437.465
BEESAT 2 30 May 18:19:47 18:23:53 83° 303° (WNW) 18:28:03 435.950
AIST 2 30 May 18:35:46 18:39:45 41° 117° (ESE) 18:43:49 435.215
CUTE-I 30 May 18:42:56 18:48:08 60° 73° (ENE) 18:53:24 437.470
YUBILEINY 30 May 18:56:27 19:05:05 64° 78° (ENE) 19:13:42 435.215
Cosmos 2491 30 May 19:02:43 19:10:17 35° 86° (E) 19:18:05 435.465 / 435.565
BEESAT 3 30 May 19:04:10 19:07:40 26° 313° (NW) 19:11:10 437.485
Cubesat XI-IV 30 May 19:04:40 19:10:00 87° 251° (WSW) 19:15:23 437.490
STRAND 1 30 May 19:12:08 19:13:09 11° 86° (E) 19:14:32 437.568
MOZHAYETS 4 30 May 19:15:54 19:19:39 25° 292° (WNW) 19:23:19
BRITE-PL 30 May 19:26:50 19:30:06 17° 62° (ENE) 19:33:41 437.365/2234.400
CUBESAT XI-V 30 May 19:28:18 19:32:43 39° 97° (E) 19:37:10 437.345
DOVE 4 30 May 19:51:04 19:52:51 12° 60° (ENE) 19:54:56 437.250
HO-68 30 May 19:55:11 20:00:38 25° 59° (ENE) 20:06:17 435.675
BEESAT 2 30 May 20:00:52 20:02:41 12° 323° (NW) 20:04:24 435.950
RS-15 30 May 20:09:23 20:19:37 35° 253° (WSW) 20:29:51 29.354- 29.394
AIST 2 30 May 20:15:00 20:18:31 24° 315° (NW) 20:21:59 435.215
CANX-2 30 May 20:18:28 20:21:07 17° 66° (ENE) 20:23:55 2200.000
CUTE 1.7 + AOD 2 30 May 20:21:26 20:24:02 16° 66° (ENE) 20:26:45 437.475
CUTE-I 30 May 20:25:08 20:28:43 17° 270° (W) 20:32:05 437.470
AIST 1 30 May 20:31:51 20:35:35 31° 91° (E) 20:39:24
CINEMA 3 30 May 20:34:51 20:37:32 15° 63° (ENE) 20:40:25 145.822/145.860
SEEDS 30 May 20:37:02 20:40:00 20° 68° (ENE) 20:43:06 437.485
PRISM 30 May 20:41:38 20:45:49 80° 285° (WNW) 20:50:00 437.425
COMPASS 1 30 May 20:43:41 20:46:31 18° 67° (ENE) 20:49:28 437.405
GOMX 1 30 May 20:44:12 20:49:16 52° 72° (ENE) 20:54:37 467.674
STRAND 1 30 May 20:47:59 20:53:10 88° 288° (WNW) 20:58:20 437.568
M-CUBED/EXP-1 PRIME 30 May 20:48:11 20:51:06 28° 103° (ESE) 20:54:04 437.505
Cubesat XI-IV 30 May 20:50:03 20:51:02 10° 275° (W) 20:51:36 437.490
AAUSAT CUBESAT 2 30 May 20:52:05 20:55:01 19° 68° (ENE) 20:58:04 437.432
AUBIESAT-1 30 May 20:52:21 20:55:13 27° 102° (ESE) 20:58:10 437.475
YUBILEINY 30 May 20:54:16 21:01:21 28° 277° (W) 21:08:09 435.215
Cosmos 2491 30 May 20:58:20 21:06:53 52° 285° (WNW) 21:15:28 435.465 / 435.565
CUBEBUG 2 30 May 20:59:21 21:01:13 13° 63° (ENE) 21:03:19 437.445
BRITE-PL 30 May 21:02:44 21:07:58 73° 259° (W) 21:13:34 437.365/2234.400
CUBESAT XI-V 30 May 21:06:16 21:09:57 23° 293° (WNW) 21:13:32 437.345
Cosmos 2504 30 May 21:22:02 21:29:02 54° 77° (ENE) 21:36:06 435.465 / 435.565
DOVE 4 30 May 21:24:36 21:29:49 82° 74° (ENE) 21:35:11 437.250
FUNcube-1 30 May 21:35:19 21:38:13 17° 66° (ENE) 21:41:15 145.935
UWE-3 30 May 21:35:53 21:39:29 23° 67° (ENE) 21:43:08 435.000/436.395/437.385
HO-68 30 May 21:40:40 21:47:50 70° 257° (WSW) 21:55:01 435.675
CANX-2 30 May 21:52:40 21:56:45 44° 262° (W) 22:00:50 2200.000
CUTE 1.7 + AOD 2 30 May 21:55:32 21:59:38 46° 262° (W) 22:03:43 437.475
CINEMA 3 30 May 22:09:10 22:14:11 73° 259° (W) 22:19:14 145.822/145.860
AIST 1 30 May 22:09:59 22:13:20 21° 289° (WNW) 22:16:36
UKube-1 30 May 22:10:37 22:13:31 18° 66° (ENE) 22:16:34 .
SEEDS 30 May 22:11:40 22:15:35 36° 263° (W) 22:19:30 437.485
ZACube-1 30 May 22:16:02 22:20:24 44° 72° (ENE) 22:24:44 437.345
COMPASS 1 30 May 22:18:02 22:21:57 38° 263° (W) 22:25:52 437.405
Oscar 11 30 May 22:18:49 22:23:09 83° 77° (ENE) 22:27:29 145.826/435.025
M-CUBED/EXP-1 PRIME 30 May 22:23:44 22:25:49 15° 297° (WNW) 22:27:49 437.505
GOMX 1 30 May 22:23:45 22:27:46 21° 271° (W) 22:31:44 467.674
DX 1 30 May 22:24:50 22:28:29 27° 68° (ENE) 22:32:14 434.975-435.025
DELFI C3 30 May 22:25:04 22:29:04 70° 76° (ENE) 22:33:04 145.870
AAUSAT CUBESAT 2 30 May 22:26:35 22:30:26 36° 263° (W) 22:34:16 437.432
AUBIESAT-1 30 May 22:27:44 22:29:53 16° 297° (WNW) 22:31:58 437.475
STRAND 1 30 May 22:29:36 22:31:41 12° 301° (WNW) 22:33:30 437.568
CUBEBUG 2 30 May 22:32:34 22:37:21 80° 258° (WSW) 22:42:06 437.445
CUBEBUG 1 30 May 22:43:56 22:45:17 11° 62° (ENE) 22:46:52 437.445
ISS 30 May 22:50:38 22:53:47 53° 141° (SE) 22:56:59 145.825
VELOX 1 30 May 22:55:20 22:59:08 29° 69° (ENE) 23:03:01 145.980
DOVE 4 30 May 23:05:59 23:08:19 12° 275° (W) 23:10:23 437.250
50 SAT 30 May 23:08:23 23:12:07 40° 72° (ENE) 23:15:52 437.505
FUNcube-1 30 May 23:09:44 23:14:12 50° 261° (W) 23:18:38 145.935
HUMSAT D 30 May 23:11:14 23:15:33 81° 77° (ENE) 23:19:51 437.325/437.525
UWE-3 30 May 23:11:24 23:15:48 39° 263° (W) 23:20:08 435.000/436.395/437.385
ESTCUBE 1 30 May 23:15:01 23:18:48 28° 68° (ENE) 23:22:39 437.505/2401.250
Cosmos 2504 30 May 23:16:13 23:22:00 26° 275° (W) 23:27:38 435.465 / 435.565
GONETS M04 30 May 23:26:30 23:33:13 25° 63° (ENE) 23:40:11
AISAT 30 May 23:27:50 23:32:15 66° 74° (ENE) 23:36:43 437.250
ANTELSAT 30 May 23:32:51 23:36:33 27° 94° (E) 23:40:15 437.575/2403.000
HO-68 30 May 23:35:08 23:37:02 11° 277° (W) 23:38:20 435.675
QB50P1 30 May 23:36:35 23:38:35 13° 89° (E) 23:40:49 145.935-145.965
POLYITAN 1 30 May 23:40:40 23:43:06 15° 90° (E) 23:45:41 437.675
UKube-1 30 May 23:45:15 23:49:22 43° 261° (W) 23:53:31 .
DANDE 30 May 23:46:46 23:53:32 35° 66° (ENE) 23:59:00 436.750
CUSAT 1 30 May 23:49:17 23:55:46 43° 70° (ENE) 00:00:49 437.405
ZACube-1 30 May 23:53:44 23:56:59 18° 269° (W) 00:00:05 437.345
PCSat 30 May 23:57:06 00:01:13 23° 108° (ESE) 00:05:29 145.827
DX 1 31 May 00:00:55 00:04:41 28° 265° (W) 00:08:26 434.975-435.025
TIGRISAT 31 May 00:03:14 00:07:32 58° 100° (E) 00:11:44 435.000
NANOSAT C BR1 31 May 00:05:02 00:08:40 27° 95° (E) 00:12:20 145.865
VERMONT LUNAR 31 May 00:06:40 00:08:14 13° 150° (SSE) 00:09:52 437.305
O/OREOS (USA 219) 31 May 00:08:07 00:10:01 13° 49° (NE) 00:12:05 437.305
QB50P2 31 May 00:16:05 00:20:04 37° 97° (E) 00:24:02 145.880/145.840
CUBEBUG 1 31 May 00:16:44 00:21:05 75° 257° (WSW) 00:25:31 437.445
DUCHIFAT 1 31 May 00:25:28 00:29:34 45° 99° (E) 00:33:38 145.980
UNISAT 6 31 May 00:25:35 00:29:57 76° 285° (WNW) 00:34:14 437.425
POPSAT HIP 1 31 May 00:27:07 00:31:16 48° 99° (E) 00:35:24 437.405
ISS 31 May 00:27:34 00:30:22 26° 339° (NNW) 00:33:11 145.825
BUGSAT 1 31 May 00:29:05 00:32:59 34° 97° (E) 00:36:51 437.445
VELOX 1 31 May 00:31:52 00:35:40 27° 265° (W) 00:39:27 145.980
SPROUT 31 May 00:38:55 00:43:07 52° 73° (ENE) 00:47:22 437.525
50 SAT 31 May 00:44:34 00:47:03 15° 269° (W) 00:49:23 437.505
TISAT 1 31 May 00:45:21 00:49:23 44° 72° (ENE) 00:53:29 437.305
ESTCUBE 1 31 May 00:51:44 00:55:37 28° 265° (W) 00:59:29 437.505/2401.250
BEESAT 2 31 May 01:03:14 01:03:52 10° 34° (NE) 01:04:39 435.950
AISAT 31 May 01:07:37 01:09:23 12° 272° (W) 01:10:53 437.250
ANTELSAT 31 May 01:09:38 01:13:19 26° 291° (WNW) 01:16:50 437.575/2403.000
QB50P1 31 May 01:10:41 01:14:52 53° 287° (WNW) 01:19:00 145.935-145.965
POLYITAN 1 31 May 01:15:12 01:19:20 46° 287° (WNW) 01:23:23 437.675
GONETS M04 31 May 01:22:20 01:31:08 75° 265° (W) 01:39:47
PHONESAT 2.4 31 May 01:27:11 01:29:20 16° 150° (SSE) 01:31:31 2401.200-2431.200
DANDE 31 May 01:30:02 01:36:55 41° 271° (W) 01:42:15 436.750
CUSAT 1 31 May 01:32:32 01:38:05 28° 275° (W) 01:42:26 437.405
PCSat 31 May 01:39:03 01:44:19 51° 305° (NW) 01:49:38 145.827
Cosmos 2499 31 May 01:39:27 01:45:15 27° 68° (ENE) 01:51:18 435.465 / 435.565
NANOSAT C BR1 31 May 01:40:52 01:44:27 26° 291° (WNW) 01:47:58 145.865
TIGRISAT 31 May 01:41:33 01:43:50 14° 296° (WNW) 01:45:55 435.000
VERMONT LUNAR 31 May 01:41:52 01:44:58 43° 165° (SSE) 01:48:03 437.305
BEESAT 3 31 May 01:44:18 01:47:41 25° 46° (NE) 01:51:04 437.485
O/OREOS (USA 219) 31 May 01:45:36 01:50:06 78° 247° (WSW) 01:54:33 437.305
QB50P2 31 May 01:52:35 01:55:44 20° 293° (WNW) 01:58:46 145.880/145.840
DUCHIFAT 1 31 May 02:02:15 02:05:03 17° 295° (WNW) 02:07:42 145.980
POPSAT HIP 1 31 May 02:04:07 02:06:48 16° 295° (WNW) 02:09:18 437.405
ITUPSAT 1 31 May 02:04:57 02:09:33 52° 72° (ENE) 02:14:11 437.325
BUGSAT 1 31 May 02:04:58 02:08:16 22° 293° (WNW) 02:11:27 437.445
ISS 31 May 02:05:38 02:07:36 15° 359° (N) 02:09:33 145.825
BEESAT 31 May 02:09:42 02:14:21 59° 73° (ENE) 02:19:03 436.000
Oscar 19 31 May 02:10:54 02:14:52 23° 92° (E) 02:18:57 437.125/150
SPROUT 31 May 02:17:09 02:19:35 14° 271° (W) 02:21:49 437.525
SWISSCUBE 31 May 02:18:50 02:23:35 80° 74° (ENE) 02:28:22 437.505
TISAT 1 31 May 02:22:42 02:25:27 16° 269° (W) 02:28:01 437.305
ITAMSAT 1 31 May 02:36:59 02:38:09 11° 86° (E) 02:39:41 435.822/435.867
BEESAT 2 31 May 02:38:44 02:42:50 66° 55° (NE) 02:46:51 435.950
KKS-1 31 May 02:40:06 02:43:30 22° 67° (ENE) 02:47:02 437.445
AIST 2 31 May 02:57:12 03:01:00 32° 48° (NE) 03:04:47 435.215
SO-50 31 May 03:01:28 03:06:06 66° 120° (ESE) 03:10:55 436.795
PHONESAT 2.4 31 May 03:03:37 03:07:00 47° 165° (SSE) 03:10:23 2401.200-2431.200
VERMONT LUNAR 31 May 03:18:47 03:22:00 69° 182° (S) 03:25:12 437.305
BEESAT 3 31 May 03:22:01 03:25:44 34° 244° (WSW) 03:29:22 437.485
GONETS M04 31 May 03:22:26 03:26:35 14° 284° (WNW) 03:30:05
PCSat 31 May 03:27:33 03:29:09 11° 327° (NNW) 03:30:33 145.827
Cosmos 2499 31 May 03:31:59 03:38:47 52° 268° (W) 03:45:44 435.465 / 435.565
STARS 31 May 03:32:18 03:36:33 47° 72° (ENE) 03:40:52 437.465
Gurwin Techsat 1B 31 May 03:37:44 03:42:46 42° 98° (E) 03:47:49 435.225
ISS 31 May 03:42:12 03:44:52 23° 19° (NNE) 03:47:33 145.825
ITUPSAT 1 31 May 03:44:41 03:47:49 17° 270° (W) 03:50:46 437.325
Oscar 19 31 May 03:49:35 03:54:28 44° 290° (WNW) 03:59:17 437.125/150
BEESAT 31 May 03:49:56 03:52:40 15° 271° (W) 03:55:11 436.000
SWISSCUBE 31 May 04:01:01 04:02:08 10° 273° (W) 04:02:55 437.505
AO-7 31 May 04:02:39 04:06:59 16° 86° (E) 04:11:52 29.400- 29.500
ITAMSAT 1 31 May 04:13:13 04:18:29 88° 290° (WNW) 04:23:44 435.822/435.867
KKS-1 31 May 04:15:48 04:19:57 36° 263° (W) 04:24:07 437.445
BEESAT 2 31 May 04:18:55 04:20:25 11° 250° (WSW) 04:21:42 435.950
AIST 2 31 May 04:35:55 04:39:30 27° 246° (WSW) 04:42:58 435.215
MOZHAYETS 4 31 May 04:40:46 04:44:49 33° 70° (ENE) 04:48:56
PHONESAT 2.4 31 May 04:41:30 04:44:59 71° 182° (S) 04:48:27 2401.200-2431.200
SO-50 31 May 04:43:32 04:47:09 20° 320° (NW) 04:50:45 436.795
VERMONT LUNAR 31 May 04:55:59 04:59:01 38° 198° (SSW) 05:02:00 437.305
HORYU 2 31 May 05:00:01 05:04:15 44° 99° (E) 05:08:29 437.375
JAS-2 31 May 05:04:03 05:09:04 48° 99° (E) 05:14:21 435.910
STARS 31 May 05:10:26 05:13:19 16° 269° (W) 05:16:03 437.465
Cosmos 2491 31 May 05:12:54 05:18:10 18° 57° (ENE) 05:23:54 435.465 / 435.565
Gurwin Techsat 1B 31 May 05:18:11 05:22:34 26° 294° (WNW) 05:26:49 435.225
ISS 31 May 05:18:18 05:21:34 72° 217° (SW) 05:24:48 145.825
AO-7 31 May 05:52:49 06:01:14 81° 107° (ESE) 06:09:38 29.400- 29.500
ITAMSAT 1 31 May 05:55:02 05:57:18 13° 301° (WNW) 05:59:18 435.822/435.867
YUBILEINY 31 May 06:07:18 06:10:29 13° 76° (ENE) 06:14:21 435.215
MOZHAYETS 4 31 May 06:18:22 06:22:07 24° 267° (W) 06:25:49
PHONESAT 2.4 31 May 06:19:39 06:22:55 38° 199° (SSW) 06:26:10 2401.200-2431.200
STRAND 1 31 May 06:27:16 06:30:34 18° 63° (ENE) 06:34:04 437.568
CUBESAT XI-V 31 May 06:32:03 06:36:19 39° 71° (ENE) 06:40:40 437.345
VERMONT LUNAR 31 May 06:34:53 06:35:40 11° 212° (SSW) 06:36:23 437.305
HORYU 2 31 May 06:37:30 06:40:37 19° 295° (WNW) 06:43:35 437.375
JAS-2 31 May 06:50:05 06:53:59 21° 295° (WNW) 06:57:51 435.910
CUTE-I 31 May 07:00:18 07:04:28 23° 92° (E) 07:08:46 437.470
Cosmos 2491 31 May 07:07:53 07:16:47 82° 80° (E) 07:25:35 435.465 / 435.565
Cubesat XI-IV 31 May 07:21:50 07:26:46 37° 97° (E) 07:31:43 437.490
PRISM 31 May 07:31:51 07:35:55 78° 76° (ENE) 07:40:02 437.425
M-CUBED/EXP-1 PRIME 31 May 07:36:23 07:40:18 49° 69° (ENE) 07:43:58 437.505
AUBIESAT-1 31 May 07:40:06 07:43:57 47° 69° (ENE) 07:47:32 437.475
AO-7 31 May 07:46:44 07:53:17 25° 305° (NW) 07:59:34 29.400- 29.500
YUBILEINY 31 May 07:57:15 08:05:56 72° 94° (E) 08:14:38 435.215
PHONESAT 2.4 31 May 07:59:30 08:00:28 11° 213° (SSW) 08:01:20 2401.200-2431.200
STRAND 1 31 May 08:04:21 08:09:22 59° 260° (W) 08:14:26 437.568
CUBESAT XI-V 31 May 08:10:26 08:13:57 21° 268° (W) 08:17:23 437.345
AIST 1 31 May 08:15:21 08:19:46 86° 263° (W) 08:24:11
RS-15 31 May 08:21:03 08:30:47 42° 109° (ESE) 08:40:54 29.354- 29.394
CUTE-I 31 May 08:39:41 08:44:48 46° 290° (WNW) 08:49:54 437.470
PCSat 31 May 08:43:43 08:48:00 24° 45° (NE) 08:52:22 145.827
GOMX 1 31 May 08:47:38 08:50:42 16° 87° (E) 08:53:51 467.674
Cubesat XI-IV 31 May 09:02:07 09:06:47 30° 293° (WNW) 09:11:22 437.490
Cosmos 2491 31 May 09:06:28 09:12:43 21° 280° (W) 09:18:29 435.465 / 435.565
BRITE-PL 31 May 09:07:48 09:13:02 41° 95° (E) 09:18:01 437.365/2234.400
HO-68 31 May 09:09:00 09:14:15 22° 91° (E) 09:19:45 435.675
M-CUBED/EXP-1 PRIME 31 May 09:13:25 09:15:23 13° 263° (W) 09:17:06 437.505
AUBIESAT-1 31 May 09:16:53 09:18:56 13° 263° (W) 09:20:44 437.475
DOVE 4 31 May 09:24:47 09:28:39 23° 91° (E) 09:32:28 437.250
CANX-2 31 May 09:37:45 09:41:24 29° 95° (E) 09:45:06 2200.000
CUTE 1.7 + AOD 2 31 May 09:40:34 09:44:11 28° 95° (E) 09:47:51 437.475
UNISAT 6 31 May 09:51:29 09:52:47 11° 62° (ENE) 09:54:19 437.425
